Location: Newark
(41.6500°N, 71.4833°W)
Time: 13:39:54
(UTC+00:00)

deb Explorer IX - Pass Details

Date: 01 February 2020
Orbit: 549 x 1099 km, 38.8° (Epoch: 24 February)

Event Time Altitude Azimuth Distance (km) Brightness Sun altitude
Rises 01:44:07 0° 261° (W) 3,540 ? -41.9°
Reaches altitude 10° 01:46:35 10° 259° (W) 2,673 ? -42.3°
Enters shadow 01:48:39 22° 256° (WSW) 1,989 ? -42.7°
Maximum altitude 01:53:07 71° 177° (S) 1,092 - -43.5°
Drops below altitude 10° 02:00:19 10° 95° (E) 2,932 - -44.7°
Sets 02:03:08 0° 94° (E) 3,904 - -45.2°
